THORAD AGENA D DEB, 5359

Orbit data source: Space-Track

THORAD AGENA D DEB, 5359 is space debris in SSO originally from a launch on Wed, 08 Apr 1970 UTC launched from the Air Force Western Test Range (AFWTR). Debris objects in space refer to the collection of defunct objects orbiting the Earth. Examples of debris include non-operational satellites, rocket bodies, and fragments generated from explosions, collisions, or faulty payload assembly.

Loading next visibility...
Identifier
5359, 1970-025KQ
Orbit
SSO
Country
Flag of USUS
Related business
Manufacturer
Unknown
Mission
Spacecraft
Bus & Motor
Unknown
Mass
Unknown
Launch date (UTC)
1970-04-08 (56 years ago)
Launch vehicle
Unknown
Launch site
Air Force Western Test Range (AFWTR)
Object type
Payload
Rocket body
Debris
Shape & HBR
Unknown shape, 0.1 m
Radar Cross Section
Medium (>0.1 m² and <1 m²)

Expand to show TLE details & history
Last TLE update: 1 day ago

TLE from 1 day ago
0 THORAD AGENA D DEB
1 05359U 70025KQ  26237.41074785  .00000464  00000-0  54623-3 0  9999
2 05359 100.0240 203.6196 0002204 224.2574 287.3068 13.73972391802843
Epoch: 2026-08-25T09:51Z
TLE epoch observation values (Epoch: 2026-08-25T09:51:28.614Z)
Latitude
28.03003°
Longitude
-92.55652°
Altitude
988.211 km
Speed
7.36 km/s
True Right ascension
01h 55m 57s
True Declination
27° 53' 31"
Sunlit
Object was in daylight at epoch
Visualization orbit readout
Latitude
Unknown
Longitude
Unknown
Altitude
Unknown
Speed
Unknown
Apparent Right ascension
Unknown
Apparent Declination
Unknown
Sunlit
N/A
Visualization observer readout
Local Sidereal Time
02:30:17
Azimuth
Unknown
Elevation
Unknown
Doppler factor
Unknown
Orbital elements
Apogee altitude
984.253 km
Perigee altitude
981.008 km
Semi-major axis
7,360.768 km
Eccentricity
0.00022
Inclination
100.024°
RAAN
203.6196°
Arg. of periapsis
224.2574°
True anomaly
287.28269°
Mean anomaly
287.3068°
Eccentric anomaly
287.29474°
Mean motion
3.43683 °/min
Orbital period
104.75 mins
BSTAR
0.00054623
Loading maneuver chart data...
Computing Atmospheric mass density...

Documentation

Showing up to 5 results
|